Location: ???? ????
(41.4149°N, 22.8816°E)
Time: 15:07:34
(UTC+00:00)

Cosmos 407 Rocket - Pass Details

Date: 14 July 2020
Orbit: 743 x 786 km, 74.0° (Epoch: 04 August)

Event Time Altitude Azimuth Distance (km) Brightness Sun altitude
Exits shadow 00:55:13 26° 256° (WSW) 1,494 4.6 -19.0°
Maximum altitude 00:57:14 35° 297° (WNW) 1,251 4.5 -18.8°
Drops below altitude 10° 01:02:07 10° 3° (N) 2,355 6.9 -18.3°
Sets 01:04:44 0° 12° (NNE) 3,286 8.0 -18.0°
